Lucknow, India

9:12 PM IST on April 23, 2018 (GMT +0530)
Lucknow

Weather History for VILK - October, 2013

Change the Weather History Date:

Thursday, October 31, 2013

  Actual Average Record
Temperature  
Mean Temperature 74 °F -  
Max Temperature 91 °F 78 °F 91 °F (2001)
Min Temperature 57 °F 58 °F 54 °F (2012)
Cooling Degree Days 9    
Growing Degree Days 24 (Base 50)    
Moisture  
Dew Point 62 °F    
Average Humidity 63    
Maximum Humidity 94    
Minimum Humidity 23    
Precipitation  
Precipitation 0.00 in - - ()
Sea Level Pressure  
Sea Level Pressure 29.91 in    
Wind  
Wind Speed 1 mph ()    
Max Wind Speed 6 mph    
Max Gust Speed -    
Visibility 1.8 miles    
Events Fog    
Averages and records for this station are not official NWS values.
T = Trace of Precipitation, MM = Missing Value Source: Averaged Metar Reports

Daily Weather History Graph

Daily Weather History Graph

Search for Another Location

Airport or City:

Astronomy

Oct. 31, 2013 Rise Set
Actual Time 6:15 AM IST 5:24 PM IST
Civil Twilight 5:51 AM IST 5:48 PM IST
Nautical Twilight 5:23 AM IST 6:15 PM IST
Astronomical Twilight 4:56 AM IST 6:42 PM IST
Moon 2:54 AM IST (10/31) 3:11 PM IST (10/31)
Length of Visible Light 11h 56m
Length of Day
11h 09m
Waning Crescent, 12% of the Moon is Illuminated
Oct 31
Waning Crescent
Nov 3
New
Nov 10
First Quarter
Nov 17
Full
Nov 26
Last Quarter

Hourly Weather History & Observations

Time (IST) Temp. Heat Index Dew Point Humidity Pressure Visibility Wind Dir Wind Speed Gust Speed Precip Events Conditions
12:00 AM 66.2 °F - 62.6 °F 88% 29.92 in 1.2 mi Calm Calm - N/A   Mist
1:00 AM 64.4 °F - 60.8 °F 88% 29.89 in 1.2 mi Calm Calm - N/A   Mist
2:00 AM 64.4 °F - 60.8 °F 88% 29.89 in 1.2 mi Calm Calm - N/A   Mist
2:30 AM 64 °F - 62 °F 90% 29.90 in 1 mi Calm Calm - -   Mist
3:00 AM 64.4 °F - 62.6 °F 94% 29.86 in 1.2 mi Calm Calm - N/A   Mist
4:00 AM 64.4 °F - 62.6 °F 94% 29.89 in 1.2 mi Calm Calm - N/A   Mist
5:00 AM 62.6 °F - 60.8 °F 94% 29.89 in 1.2 mi Calm Calm - N/A   Mist
5:30 AM 63 °F - 60 °F 87% 29.91 in 1 mi Calm Calm - -   Mist
5:30 AM 62.6 °F - 60.8 °F 94% 29.89 in 1.2 mi Calm Calm - N/A   Mist
7:00 AM 62.6 °F - 60.8 °F 94% 29.92 in 0.5 mi Variable 2.3 mph - N/A Fog Shallow Fog
8:30 AM 71 °F - 65 °F 76% 29.98 in 1 mi Calm Calm - -   Mist
8:30 AM 71.6 °F - 64.4 °F 78% 29.95 in 1.2 mi Calm Calm - N/A   Mist
9:30 AM 78.8 °F - 66.2 °F 65% 29.98 in 1.2 mi South 3.5 mph - N/A   Haze
10:30 AM 82.4 °F 83.4 °F 62.6 °F 51% 29.98 in 1.9 mi WSW 3.5 mph - N/A   Haze
11:00 AM 86.0 °F 86.6 °F 62.6 °F 45% 29.95 in 1.9 mi West 3.5 mph - N/A   Haze
11:30 AM 87.8 °F 87.6 °F 60.8 °F 40% 29.95 in 1.9 mi West 4.6 mph - N/A   Haze
12:00 PM 87.8 °F 87.6 °F 60.8 °F 40% 29.92 in 1.9 mi SW 3.5 mph - N/A   Haze
12:30 PM 89.6 °F 89.5 °F 60.8 °F 38% 29.92 in 1.9 mi WSW 3.5 mph - N/A   Haze
1:00 PM 89.6 °F 88.9 °F 59.0 °F 36% 29.92 in 1.9 mi WSW 3.5 mph - N/A   Haze
1:30 PM 89.6 °F 88.9 °F 59.0 °F 36% 29.89 in 1.9 mi NW 5.8 mph - N/A   Haze
2:00 PM 89.6 °F 88.9 °F 59.0 °F 36% 29.89 in 2.5 mi NW 4.6 mph - N/A   Haze
2:30 PM 90 °F - 57 °F 23% 29.88 in 2 mi NW 5.8 mph - -   Haze
2:30 PM 89.6 °F 88.1 °F 57.2 °F 33% 29.86 in 2.5 mi NW 5.8 mph - N/A   Haze
3:00 PM 89.6 °F 88.1 °F 57.2 °F 33% 29.86 in 2.5 mi NW 4.6 mph - N/A   Haze
3:30 PM 89.6 °F 88.1 °F 57.2 °F 33% 29.86 in 2.5 mi NW 4.6 mph - N/A   Haze
4:00 PM 89.6 °F 88.1 °F 57.2 °F 33% 29.86 in 2.5 mi NW 3.5 mph - N/A   Haze
4:30 PM 87.8 °F 87.1 °F 59.0 °F 38% 29.86 in 2.5 mi NW 2.3 mph - N/A   Haze
5:00 PM 87.8 °F 87.1 °F 59.0 °F 38% 29.86 in 2.5 mi NW 2.3 mph - N/A   Haze
5:30 PM 81 °F - 65 °F 50% 29.89 in 2 mi NW 2.3 mph - -   Haze
5:30 PM 80.6 °F 82.7 °F 66.2 °F 61% 29.89 in 2.5 mi NW 2.3 mph - N/A   Haze
6:00 PM 77.0 °F - 64.4 °F 65% 29.89 in 2.5 mi Calm Calm - N/A   Haze
6:30 PM 75.2 °F - 62.6 °F 65% 29.89 in 2.5 mi Calm Calm - N/A   Haze
7:30 PM 75.2 °F - 66.2 °F 73% 29.92 in 1.9 mi ENE 3.5 mph - N/A   Haze
8:00 PM 73.4 °F - 66.2 °F 78% 29.95 in 1.9 mi Variable 2.3 mph - N/A   Unknown
8:30 PM 73 °F - 66 °F 73% 29.96 in 1 mi Calm Calm - -   Haze
8:30 PM 73.4 °F - 66.2 °F 78% 29.95 in 1.9 mi Calm Calm - N/A   Haze
9:00 PM 73.4 °F - 66.2 °F 78% 29.95 in 1.9 mi Calm Calm - N/A   Haze
10:00 PM 73.4 °F - 66.2 °F 78% 29.95 in 1.9 mi Variable 2.3 mph - N/A   Haze
11:00 PM 71.6 °F - 66.2 °F 83% 29.95 in 1.2 mi Variable 2.3 mph - N/A   Mist